Content
SEND FEEDBACK

Daily
Averages
Monthly
Summary
United States of America

ASATDAS, GUAM


Home > North America > United States > Guam
Elevation: 612 feet     Latitude: 13 35N     Longitude: 144 56E

WEATHER
 
SELECT A DAY
Number of Records: 213,057;   Date Range: 1/1/95 - 9/29/14
 
SHARE

PRINT THIS DATA

[ ← Previous Day ]
WEATHER ALMANAC - JUNE 27, 2013
[ Next Day → ]
[ °C ]   °F
We're sorry. There is no daily almanac available for Asatdas, Guam on June 27, 2013.
WEATHER BY HOUR - JUNE 27, 2013
[ °C ]   °F
Local TimeTemperatureDewpointHumidityBarometerVisibilityWind DirectionWind SpeedGust SpeedPrecipitationEventsConditions
12:16 AM80.6 °F75.2 °F84 %29.88 in10.0 miEast (80°)5.8 mph0.25 inRainRain
12:54 AM82.0 °F77.0 °F85 %29.84 in7.0 miENE (70°)6.9 mphRainRain
1:54 AM82.0 °F77.0 °F85 %29.83 in10.0 miENE (70°)6.9 mphScattered Clouds
2:45 AM78.8 °F75.2 °F89 %29.86 in2.5 miEast (80°)19.6 mph26.5 mphRainHeavy Rain
2:54 AM78.1 °F73.9 °F87 %29.83 in1.0 miNE (40°)9.2 mphRainHeavy Rain
3:02 AM78.8 °F75.2 °F89 %29.85 in2.0 miNorth (360°)4.6 mphRainRain
3:08 AM78.8 °F75.2 °F89 %29.84 in10.0 miCalmMostly Cloudy
3:23 AM78.8 °F75.2 °F89 %29.83 in10.0 miSouth (170°)4.6 mph0.19 inThunderstormThunderstorm
3:54 AM79.0 °F75.9 °F90 %29.81 in10.0 miENE (60°)5.8 mph0.19 inScattered Clouds
4:54 AM80.1 °F75.9 °F87 %29.81 in10.0 miNNE (30°)5.8 mphClear
5:54 AM80.1 °F77.0 °F90 %29.83 in10.0 miNNE (30°)8.1 mphClear
6:54 AM82.0 °F77.0 °F85 %29.84 in10.0 miESE (110°)4.6 mphClear
7:54 AM84.9 °F79.0 °F82 %29.84 in10.0 miNNE (30°)3.5 mphScattered Clouds
8:34 AM82.4 °F75.2 °F79 %29.87 in10.0 miNE (50°)16.1 mphOvercast
8:41 AM80.6 °F75.2 °F84 %29.87 in9.0 miNE (50°)12.7 mphMostly Cloudy
8:54 AM81.0 °F75.0 °F82 %29.84 in10.0 miESE (120°)9.2 mph0.00 inRainLight Rain
9:01 AM80.6 °F75.2 °F84 %29.87 in10.0 miESE (120°)6.9 mph0.00 inRainLight Rain
9:54 AM81.0 °F75.9 °F85 %29.85 in10.0 miSE (130°)4.6 mph0.00 inScattered Clouds
10:54 AM82.0 °F77.0 °F85 %29.86 in10.0 miSE (130°)5.8 mph0.00 inRainLight Rain
11:54 AM82.0 °F78.1 °F88 %29.86 in10.0 miSE (140°)8.1 mph0.00 inOvercast
12:54 PM81.0 °F77.0 °F88 %29.84 in10.0 miSSE (150°)8.1 mph0.02 inRainLight Rain
1:54 PM81.0 °F78.1 °F91 %29.82 in10.0 miSSE (150°)6.9 mph0.01 inClear
2:54 PM82.0 °F77.0 °F85 %29.81 in10.0 miSE (140°)4.6 mphMostly Cloudy
3:10 PM82.4 °F77.0 °F84 %29.82 in10.0 miSE (130°)3.5 mphScattered Clouds
3:54 PM84.0 °F77.0 °F79 %29.78 in10.0 miESE (110°)8.1 mphPartly Cloudy
4:54 PM82.9 °F75.9 °F79 %29.78 in10.0 miEast (100°)6.9 mphScattered Clouds
5:54 PM82.9 °F75.9 °F79 %29.79 in10.0 miEast (90°)5.8 mphScattered Clouds
6:54 PM82.9 °F75.9 °F79 %29.80 in10.0 miEast (80°)6.9 mphScattered Clouds
7:54 PM82.9 °F77.0 °F82 %29.82 in10.0 miEast (80°)5.8 mphScattered Clouds
8:54 PM82.9 °F75.9 °F79 %29.83 in10.0 miEast (100°)9.2 mphScattered Clouds
9:54 PM82.9 °F75.9 °F79 %29.84 in10.0 miEast (100°)4.6 mphScattered Clouds
10:54 PM82.9 °F75.9 °F79 %29.85 in10.0 miEast (90°)3.5 mphScattered Clouds
11:54 PM82.9 °F75.9 °F79 %29.84 in10.0 miCalmPartly Cloudy
Hourly data recorded from PGUM, located miles away from Asatdas, Guam







STORIES FROM OUR PARTNERS